Regional Weather Roundup
Issued by NWS

Home | Current Version | Previous Version | Graphics & Text | Print | Product List | Glossary On
Versions: 1 2 3 4 5 6 7 8 9 10 11 12 13 14 15 16 17 18 19 20 21 22 23 24 25 26 27 28 29 30 31 32 33 34 35 36 37 38 39 40 41 42 43 44 45 46 47 48 49 50
000
ASUS43 KOAX 262210
RWRNE

WEATHER ROUNDUP FOR NEBRASKA
NATIONAL WEATHER SERVICE OMAHA NE
500 PM CDT FRI MAY 26 2017

NOTES: SATELLITE DATA IS BEING USED TO AUGMENT CLOUD COVER ABOVE
       12000 FEET.
       "FAIR" INDICATES FEW OR NO CLOUDS BELOW 12,000 FEET WITH NO
       SIGNIFICANT WEATHER AND/OR OBSTRUCTIONS TO VISIBILITY.

  * THESE STATIONS DO NOT REPORT WEATHER SUCH AS RAIN...SNOW OR FOG.

NEZ001>004-019>022-054>056-262300-
NEBRASKA PANHANDLE

CITY           SKY/WX    TMP DP  RH WIND       PRES   REMARKS
SCOTTSBLUFF    LGT RAIN  62  42  47 NE8       29.90R
ALLIANCE       CLOUDY    64  43  46 SE7       29.88F
CHADRON        CLOUDY    63  45  51 NE7       29.88S
GORDON         MOCLDY    65  37  34 CALM      29.89R
KIMBALL        CLOUDY    65  45  48 SE15      29.89F
SIDNEY         CLOUDY    67  48  50 S14G21    29.90R
$$

NEZ057>060-069>072-079>082-262300-
SOUTHWEST NEBRASKA

CITY           SKY/WX    TMP DP  RH WIND       PRES   REMARKS
NORTH PLATTE   SUNNY     74  42  31 MISG      29.86F
IMPERIAL       SUNNY     72  46  39 SE13G18   29.86F
LEXINGTON      SUNNY     74  51  43 SE5       29.86F
MCCOOK         SUNNY     76  49  38 E6        29.85F
OGALLALA       SUNNY     72  44  35 E5        29.87S HAZE
$$

NEZ005>010-023>029-035>040-094-262300-
NORTH CENTRAL NEBRASKA

CITY           SKY/WX    TMP DP  RH WIND       PRES   REMARKS
VALENTINE      SUNNY     71  36  27 SW5       29.88S
AINSWORTH      SUNNY     68  43  40 N5        29.89S
BROKEN BOW     SUNNY     73  44  35 MISG      29.87F
O`NEILL        SUNNY     71  39  31 NW9       29.88S
ORD            SUNNY     74  42  31 N3        29.85F
THEDFORD       SUNNY     72  42  34 E6        29.89F
$$

NEZ041-046>049-061>064-073>077-083>087-262300-
SOUTH CENTRAL NEBRASKA

CITY           SKY/WX    TMP DP  RH WIND       PRES   REMARKS
GRAND ISLAND   SUNNY     77  48  35 N7        29.85F
AURORA         SUNNY     77  42  28 CALM      29.85S
HASTINGS       SUNNY     77  47  34 N5        29.86S
HEBRON         SUNNY     82  46  28 NE9       29.82S
HOLDREGE       SUNNY     74  45  34 NE5       29.86S
KEARNEY *      SUNNY     75  46  35 CALM      29.86F
YORK           SUNNY     77  46  33 NE9       29.84S
$$

NEZ011>018-030>034-042>045-262300-
NORTHEAST NEBRASKA

CITY           SKY/WX    TMP DP  RH WIND       PRES   REMARKS
NORFOLK        SUNNY     76  42  29 NW13      29.83S
ALBION         SUNNY     75  43  31 NE7       29.86S
BLAIR          MOSUNNY   78  51  39 N9        29.81S
FREMONT        SUNNY     80  46  29 N9        29.82S
TEKAMAH        PTSUNNY   80  47  31 N6        29.80S
WAYNE          SUNNY     77  46  34 NW14      29.83S
$$

NEZ050>053-065>068-078-088>093-262300-
SOUTHEAST NEBRASKA

CITY           SKY/WX    TMP DP  RH WIND       PRES   REMARKS
LINCOLN        SUNNY     81  50  33 N7        29.82S
OMAHA EPPLEY   MOSUNNY   80  51  36 N12       29.80S
BEATRICE       SUNNY     82  51  33 NE9       29.81S
FALLS CITY     MOSUNNY   84  60  44 N8        29.76S
NEBRASKA CITY  SUNNY     81  48  31 N12G17    29.79S
PLATTSMOUTH    SUNNY     81  52  36 N9        29.80S
$$

NEZ044-045-051>053-067-262300-
OMAHA AREA

CITY           SKY/WX    TMP DP  RH WIND       PRES   REMARKS
OMAHA EPPLEY   MOSUNNY   80  51  36 N12       29.80S
BLAIR          MOSUNNY   78  51  39 N9        29.81S
FREMONT        SUNNY     80  46  29 N9        29.82S
MILLARD        SUNNY     80  54  40 N6        29.81S
OFFUTT AFB     SUNNY     79  51  37 N13       29.79S
PLATTSMOUTH    SUNNY     81  52  36 N9        29.80S
WAHOO          FAIR      80  42  25 NE6       29.81S
$$



USA.gov is the U.S. government's official web portal to all federal, state and local government web resources and services.